This demonstration page uses our WeatherBlox Daily Observations layout. Learn more.

Left ArrowRight Arrow

38.20091, -84.87328

Hourly Observations for September 25, 2016

Temp ( °F °C ) Dew Point ( °F °C ) Humidity (%) Winds ( mph kmh ) Pressure ( in mb ) Visibility ( mi km ) Precip ( " mm )
12:53 am 00:53 Clear 72 22.2 65 18.3 79 79 E 3 6 30.08 1019 10 16 0.00 0.00
1:53 am 01:53 Clear 73 22.8 65 18.3 76 76 Calm 30.08 1019 10 16 0.00 0.00
2:53 am 02:53 Clear 71 21.7 64 17.8 79 79 Calm 30.08 1019 10 16 0.00 0.00
3:53 am 03:53 Clear 68 20 63 17.2 84 84 Calm 30.08 1019 9 14 0.00 0.00
4:53 am 04:53 Clear 70 21.1 64 17.8 82 82 NE 3 6 30.07 1018 10 16 0.00 0.00
5:53 am 05:53 Clear 68 20 63 17.2 84 84 ENE 5 7 30.08 1019 9 14 0.00 0.00
6:53 am 06:53 Clear 68 20 62 16.7 81 81 E 3 6 30.08 1019 10 16 0.00 0.00
7:53 am 07:53 Sunny 67 19.4 62 16.7 84 84 Calm 30.09 1019 8 13 0.00 0.00
8:53 am 08:53 Sunny 70 21.1 63 17.2 79 79 NE 3 6 30.10 1019 10 16 0.00 0.00
9:53 am 09:53 Partly Cloudy 73 22.8 64 17.8 74 74 E 6 9 30.10 1019 10 16 0.00 0.00
10:53 am 10:53 Sunny 78 25.6 65 18.3 64 64 ESE 3 6 30.10 1019 10 16 0.00 0.00
11:53 am 11:53 Mostly Sunny 83 28.3 66 18.9 57 57 VRB 3 6 30.09 1019 10 16 0.00 0.00
12:53 pm 12:53 Sunny 85 29.4 65 18.3 51 51 Calm 30.08 1019 10 16 0.00 0.00
1:53 pm 13:53 Mostly Sunny 87 30.6 65 18.3 48 48 Calm 30.06 1018 10 16 0.00 0.00
2:53 pm 14:53 Mostly Sunny 86 30 64 17.8 48 48 Calm 30.04 1017 10 16 0.00 0.00
3:53 pm 15:53 Mostly Cloudy 89 31.7 63 17.2 42 42 VRB 3 6 30.02 1017 10 16 0.00 0.00
4:53 pm 16:53 Mostly Sunny 89 31.7 64 17.8 43 43 N 7 11 30.01 1016 10 16 0.00 0.00
5:53 pm 17:53 Mostly Cloudy 88 31.1 64 17.8 45 45 Calm 30.00 1016 10 16 0.00 0.00
6:53 pm 18:53 Sunny 87 30.6 64 17.8 46 46 N 3 6 29.99 1016 10 16 0.00 0.00
7:53 pm 19:53 Clear 79 26.1 64 17.8 60 60 E 5 7 30.00 1016 10 16 0.00 0.00
8:53 pm 20:53 Clear 75 23.9 66 18.9 74 74 Calm 30.00 1016 10 16 0.00 0.00
9:53 pm 21:53 Clear 73 22.8 65 18.3 76 76 Calm 30.01 1016 10 16 0.00 0.00
10:53 pm 22:53 Clear 72 22.2 65 18.3 79 79 Calm 30.01 1016 10 16 0.00 0.00
11:53 pm 23:53 Clear 69 20.6 64 17.8 84 84 Calm 30.00 1016 9 14 0.00 0.00

Powered by AerisWeather